﻿ProjectID	SampleID	SampleType	TaxonomyID	UniqCodeType	UniqCode	SampleName	ScientificName	CommonName	CollectionYear	CollectionMonth	CollectionDay	SamplingTimeStartEnd	SamplingTimeAMPM	SamplingDuration	WeatherStartEnd	CollectionRegion	CollectionCountry	CollectionArea	CollectionLatitudeFrom	CollectionLatitudeTo	CollectionLongitudeFrom	CollectionLongitudeTo	Sex	TissueOrgan	TissueLipid	TissueMoist	Weight	WeightUnit	Length	LengthUnit	LengthType	GrowthStage	Age	Disease	TemperatureStartEnd	WaterTemperatureStartEnd	pH	DO	EC	EC_temp	Salinity	SS	WaterDepthM	TransparencyM	WaterColor	SedimentTemperatureStartEnd	SedimentDepthM	SedimentAppearance	SedimentColor	SedimentSurfaceColor	SedimentOdor	SedimentImpurities	SedimentMoistureOnSiteAnalysis	IgnitionLossOnSiteAnalysis	SoilDepthM	FlowRate	MeanPM10	MeanTotalSuspendedParticles	HumidityStartEnd	WindDirectionStartEnd	WindSpeedMSStartEnd	AmountOfCollectedAirStartEnd	Remarks	RegisterDate	UpdateDate
PRA000031	SAA001948	ST023				st-01	Sediment	"Marine sediment"	2003	5	28					Asia	Japan	"Tokyo Bay"	35.61722222		139.9666667																										11.2																	2017/4/27	2019/7/17
PRA000031	SAA001949	ST023				st-02	Sediment	"Marine sediment"	2003	5	28					Asia	Japan	"Tokyo Bay"	35.5975		140.0344444																										10																	2017/4/27	2019/7/17
PRA000031	SAA001950	ST023				st-03	Sediment	"Marine sediment"	2003	5	28					Asia	Japan	"Tokyo Bay"	35.59		139.8466667																										10.6																	2017/4/27	2019/7/17
PRA000031	SAA001951	ST023				st-04	Sediment	"Marine sediment"	2003	5	28					Asia	Japan	"Tokyo Bay"	35.57944444		139.8897222																										12																	2017/4/27	2019/7/17
PRA000031	SAA001952	ST023				st-05	Sediment	"Marine sediment"	2003	5	28					Asia	Japan	"Tokyo Bay"	35.56444444		139.9430556																										16.7																	2017/4/27	2019/7/17
PRA000031	SAA001953	ST023				st-06	Sediment	"Marine sediment"	2003	5	28					Asia	Japan	"Tokyo Bay"	35.54805556		139.9930556																										15.6																	2017/4/27	2019/7/17
PRA000031	SAA001954	ST023				st-07	Sediment	"Marine sediment"	2003	5	28					Asia	Japan	"Tokyo Bay"	35.54777778		139.8263889																										17.8																	2017/4/27	2019/7/17
PRA000031	SAA001955	ST023				st-08	Sediment	"Marine sediment"	2003	5	28					Asia	Japan	"Tokyo Bay"	35.53583333		139.8580556																										19.4																	2017/4/27	2019/7/17
PRA000031	SAA001956	ST023				st-09	Sediment	"Marine sediment"	2003	5	28					Asia	Japan	"Tokyo Bay"	35.525		139.8952778																										22.2																	2017/4/27	2019/7/17
PRA000031	SAA001957	ST023				st-10	Sediment	"Marine sediment"	2003	5	28					Asia	Japan	"Tokyo Bay"	35.50333333		139.9530556																										18.9																	2017/4/27	2019/7/17
PRA000031	SAA001958	ST023				st-11	Sediment	"Marine sediment"	2003	5	28					Asia	Japan	"Tokyo Bay"	35.46583333		139.7775																										30																	2017/4/27	2019/7/17
PRA000031	SAA001959	ST023				st-12	Sediment	"Marine sediment"	2003	5	28					Asia	Japan	"Tokyo Bay"	35.46027778		139.8266667																										30																	2017/4/27	2019/7/17
PRA000031	SAA001960	ST023				st-13	Sediment	"Marine sediment"	2003	5	28					Asia	Japan	"Tokyo Bay"	35.45		139.8725																										22.2																	2017/4/27	2019/7/17
PRA000031	SAA001961	ST023				st-14	Sediment	"Marine sediment"	2003	5	28					Asia	Japan	"Tokyo Bay"	35.41583333		139.7183333																										36.4																	2017/4/27	2019/7/17
PRA000031	SAA001962	ST023				st-15	Sediment	"Marine sediment"	2003	5	28					Asia	Japan	"Tokyo Bay"	35.40833333		139.7613889																										17																	2017/4/27	2019/7/17
PRA000031	SAA001963	ST023				st-16	Sediment	"Marine sediment"	2003	5	28					Asia	Japan	"Tokyo Bay"	35.38555556		139.815																										14.2																	2017/4/27	2019/7/17
PRA000031	SAA001964	ST023				st-17	Sediment	"Marine sediment"	2003	5	28					Asia	Japan	"Tokyo Bay"	35.35277778		139.6880556																										43																	2017/4/27	2019/7/17
PRA000031	SAA001965	ST023				st-18	Sediment	"Marine sediment"	2003	5	28					Asia	Japan	"Tokyo Bay"	35.34861111		139.7252778																										23																	2017/4/27	2019/7/17
PRA000031	SAA001966	ST023				st-19	Sediment	"Marine sediment"	2003	5	28					Asia	Japan	"Tokyo Bay"	35.33888889		139.7752778																										14																	2017/4/27	2019/7/17
PRA000031	SAA001967	ST023				st-20	Sediment	"Marine sediment"	2003	5	28					Asia	Japan	"Tokyo Bay"	35.31027778		139.7080556																										49.4																	2017/4/27	2019/7/17
